Probability
0 0 0 0 0 0 0 0 0 0 0 0 0 0 0 0 0 0 0 0 0 0 0 0 0 0 0 0 0 0 0 0 0 0 0 0 0 0 0 0 0 0 0 0
0 0 0 0 0 0 0 0 0 0 0 0 0 0 0 0 0 0 0 0 0 0 0 0 0 0 0 0 0 0 0 0 0 0 0 0 0 0 0 0 0 0 0 0
0 0 0 0 0 0 0 0 0 0 0 0 0 0 0 0 0 0 0 0 0 0 0 0 0 1 1 0 0 0 0 0 0 0 0 0 0 0 0 0 0 0 0 0
0 0 0 0 0 0 0 0 0 0 0 0 0 0 0 0 0 0 0 0 0 0 0 0 0 1 2 1 1 0 0 0 0 0 0 0 0 0 0 0 0 0 0 0
0 0 0 0 0 0 0 0 0 0 0 0 0 0 0 0 0 0 0 0 0 0 0 0 0 1 2 3 2 1 1 0 0 0 0 0 0 0 1 1 1 0 0 0
0 0 0 0 0 0 0 0 0 0 0 0 0 0 0 0 0 0 0 0 0 0 0 0 0 1 2 3 3 3 2 1 1 0 0 0 0 0 1 1 1 0 0 0
0 0 0 0 0 0 0 0 0 0 0 0 0 0 0 0 0 0 0 0 1 2 2 2 1 0 1 2 3 3 3 2 1 0 0 0 0 0 0 0 0 0 0 0
0 0 0 0 0 0 0 0 0 0 0 0 0 0 0 0 0 0 0 0 1 2 3 3 2 1 0 1 1 2 3 3 2 0 0 0 0 0 0 0 0 0 0 0
0 0 0 0 0 0 0 0 0 0 0 0 0 0 0 0 0 0 0 0 1 1 2 3 2 1 0 0 0 1 3 3 2 1 0 1 1 0 0 0 0 0 0 0
0 0 0 0 0 0 0 0 0 0 0 0 0 0 0 0 0 0 0 0 0 0 1 1 2 1 0 0 0 1 3 5 4 3 2 2 2 1 0 0 0 0 0 0
0 0 0 0 0 0 0 0 0 0 0 0 0 0 0 0 0 0 0 1 1 1 0 1 2 2 1 0 0 1 3 5 6 5 4 3 2 1 0 0 0 0 0 0
0 0 0 0 0 0 0 0 0 0 0 0 0 0 0 0 0 0 0 1 2 1 0 0 1 2 2 1 0 0 1 3 5 6 6 4 2 1 0 0 0 0 0 0
0 0 0 0 0 0 0 0 0 0 0 0 0 0 0 0 0 0 1 2 3 2 1 0 1 2 2 1 0 0 0 1 3 5 6 6 4 3 1 1 1 0 0 0
0 0 0 0 0 0 0 0 0 0 0 0 0 0 0 0 0 0 1 3 3 3 2 1 0 1 2 2 1 0 0 0 1 4 5 6 5 4 4 3 2 1 0 0
0 0 0 0 0 0 0 0 0 0 0 0 0 0 0 0 0 1 2 3 3 3 3 1 0 1 2 2 1 0 0 0 1 3 4 4 4 4 5 5 3 2 1 1
0 0 0 0 0 0 0 0 0 0 0 0 0 0 0 0 0 1 2 3 3 3 3 2 1 1 2 2 1 0 0 1 1 3 3 3 3 3 4 4 4 3 3 2
0 0 0 0 0 0 0 0 0 0 0 0 0 0 0 0 0 0 1 3 3 3 3 2 1 1 2 1 0 0 1 2 3 3 3 3 3 3 3 3 4 4 4 4
0 0 0 0 0 0 0 0 0 0 0 0 0 0 0 0 0 0 1 2 3 3 3 3 1 1 2 1 0 1 2 3 3 3 3 3 3 3 3 3 3 4 4 4
0 0 0 0 0 0 0 0 0 0 0 0 0 0 0 0 0 0 0 1 2 3 3 3 2 1 2 1 0 1 2 3 3 3 3 3 3 3 3 3 3 3 3 3
0 0 0 0 0 0 0 0 0 0 0 0 0 0 0 0 0 0 0 0 1 3 3 3 3 2 2 1 0 1 2 3 3 3 3 3 3 3 3 3 3 2 1 1
0 0 0 0 0 0 0 0 0 0 0 0 0 0 0 0 0 0 0 0 1 2 3 3 3 3 3 2 0 1 2 3 3 3 3 2 2 2 2 2 1 1 0 0
0 0 0 0 0 0 0 0 0 0 0 0 0 0 0 0 0 0 0 0 0 1 2 3 3 3 2 2 1 2 3 4 4 3 1 1 1 1 1 1 0 0 0 0
0 0 0 0 0 0 0 0 0 0 0 0 0 0 0 0 0 0 0 0 0 0 1 2 3 3 2 1 2 3 4 5 4 2 1 0 0 0 0 0 0 0 0 0
0 0 0 0 0 0 0 0 0 0 0 0 0 0 0 0 0 0 0 0 0 0 0 1 2 2 1 1 2 3 4 4 3 2 1 1 0 0 0 0 0 0 0 0
0 0 0 0 0 0 0 0 0 0 0 0 0 0 0 0 0 0 0 0 0 0 0 0 1 1 1 2 2 2 1 2 3 3 2 2 1 0 0 0 0 0 0 0
0 0 0 0 0 0 0 0 0 0 0 0 0 0 0 0 0 0 0 0 0 0 0 0 0 0 1 2 2 1 0 1 3 3 3 2 2 1 0 0 0 0 0 0
Wind_Speed
2 3 1 1 0 1 1 2 2 1 0 3 4 4 2 2 4 4 4 4 4 4 3 3 3 4 4 4 4 3 3 3 2 2 2 2 2 1 1 1 1 1 1 2
4 2 0 0 2 3 3 4 2 1 1 3 4 4 1 2 3 3 3 4 4 3 3 4 4 4 4 4 4 3 3 3 2 2 1 1 1 0 1 1 1 1 1 2
3 2 1 3 3 3 3 3 2 2 1 4 4 3 3 3 2 2 3 3 2 3 3 4 4 4 4 4 4 3 3 3 3 3 2 2 2 2 2 2 1 1 1 2
2 1 2 3 2 4 2 1 3 3 4 1 2 2 2 2 2 2 3 3 3 3 3 3 4 4 4 4 4 3 3 3 3 3 3 3 2 2 1 1 2 2 2 2
2 2 3 3 1 3 1 1 3 4 4 4 3 4 2 1 0 1 2 2 2 3 3 3 3 4 4 4 3 3 3 3 3 3 3 2 2 1 1 1 2 2 2 2
1 1 3 2 0 2 2 3 4 5 6 5 1 4 0 1 2 2 1 2 2 3 3 3 3 3 4 4 4 3 3 3 3 3 4 3 3 3 3 2 2 2 2 2
4 4 2 2 3 4 5 5 4 4 4 1 1 4 1 3 2 2 1 1 2 3 3 4 4 4 4 4 4 3 3 3 4 4 4 3 3 4 3 3 3 2 2 2
4 4 3 2 3 3 3 6 4 4 3 1 2 3 2 2 1 1 1 1 2 2 3 3 3 3 4 4 4 4 4 4 3 3 3 4 4 3 2 3 2 2 2 2
3 2 3 1 1 3 4 3 4 6 5 5 3 1 1 2 2 2 2 2 2 2 2 3 3 3 3 4 4 3 4 4 4 4 3 3 3 3 2 3 2 2 2 2
3 3 2 2 4 1 3 1 4 5 5 6 3 4 2 2 1 1 1 1 1 1 1 1 2 3 3 4 3 3 3 4 4 3 3 2 2 2 2 2 2 2 2 2
4 5 4 4 4 3 4 4 4 5 5 6 5 0 2 1 1 1 1 1 1 1 1 1 1 2 3 3 4 3 3 3 3 3 3 3 3 2 3 2 2 2 2 3
3 5 4 3 1 2 4 4 6 6 5 6 6 2 3 1 1 2 2 1 1 1 1 1 1 2 3 3 3 3 3 3 3 3 4 3 3 3 3 3 2 2 2 2
2 5 5 5 6 5 4 3 4 6 6 7 8 3 3 0 2 2 3 2 1 1 1 1 2 2 3 3 3 3 3 4 4 3 4 4 4 3 3 3 2 2 2 3
4 6 7 6 3 2 5 5 6 8 7 8 9 8 5 4 5 4 3 3 2 2 2 1 2 2 2 3 3 3 4 4 4 4 4 4 4 3 3 3 2 2 2 3
5 7 6 7 6 6 8 8 8 10 10 11 10 10 9 6 5 4 3 2 2 2 2 2 2 2 2 3 4 4 4 4 4 4 4 4 3 3 3 2 2 2 2 3
4 6 6 7 5 7 10 10 10 11 11 12 12 11 6 5 5 4 3 3 3 3 4 3 3 3 3 4 4 4 5 4 4 4 4 3 4 3 3 3 3 2 2 3
4 6 6 6 4 7 10 8 9 9 9 10 10 7 3 5 5 5 4 4 4 4 4 4 4 4 4 5 4 5 5 5 5 5 4 4 4 4 4 3 3 3 3 3
6 6 5 5 5 9 1 1 3 6 6 6 5 5 5 6 6 6 5 4 4 3 4 4 4 4 4 4 4 4 5 5 5 5 4 4 4 4 4 3 3 3 3 3
8 7 5 5 7 8 4 2 3 5 5 2 4 4 4 5 5 3 2 4 5 4 4 4 4 4 3 3 3 4 5 5 6 5 5 5 5 4 4 4 4 3 3 3
5 7 7 7 7 7 1 2 1 5 5 1 2 3 3 5 6 3 4 6 6 5 4 3 3 3 3 3 3 4 5 5 6 5 5 5 5 5 5 5 4 3 3 3
7 7 9 10 9 6 2 2 3 6 1 2 2 3 4 5 6 6 7 6 5 4 3 3 3 2 2 3 4 4 4 5 5 5 5 5 5 5 5 4 4 4 3 3
6 6 8 7 9 5 4 3 3 3 4 1 3 4 5 6 6 6 6 5 4 3 3 2 2 1 1 3 4 4 4 4 4 4 5 5 5 4 4 4 3 4 3 4
6 5 4 5 3 3 1 1 2 4 4 4 4 5 6 6 6 7 6 5 4 4 3 2 2 1 1 2 3 4 3 3 4 4 4 5 5 4 4 4 4 4 4 3
4 3 6 6 5 4 4 4 4 5 5 5 5 5 5 6 6 6 6 5 4 3 3 3 2 2 2 2 3 4 3 3 5 5 5 5 5 4 4 4 4 4 4 4
4 4 6 8 6 5 6 6 6 5 6 6 5 5 6 6 6 6 6 5 4 4 3 3 3 3 3 3 3 3 3 4 5 5 5 5 4 4 4 4 4 5 5 4
8 8 8 7 6 6 6 6 6 7 7 6 6 6 6 6 6 6 6 5 5 5 4 4 4 4 4 3 3 3 4 5 5 5 5 4 4 4 4 4 3 2 4 4
Wind_Direction
207 214 195 85 343 322 266 256 272 347 31 255 256 274 276 212 211 213 208 207 211 201 180 170 176 173 174 178 182 169 181 180 172 165 172 165 161 170 142 129 122 153 183 170
195 201 31 234 196 226 238 248 261 137 105 268 278 276 238 188 210 218 218 211 209 199 179 168 179 175 178 175 179 176 180 174 163 153 160 152 138 137 109 141 137 145 167 173
229 68 131 197 196 226 237 264 290 306 274 217 265 225 175 149 172 192 224 234 218 203 195 172 178 180 179 178 176 180 179 168 159 157 152 146 146 184 166 158 143 143 157 163
213 136 211 225 229 258 244 292 275 264 257 226 269 263 143 140 168 185 201 206 204 189 186 172 175 177 178 173 171 179 174 170 162 170 171 170 181 180 149 142 137 149 147 162
169 189 223 238 269 257 333 325 257 252 252 250 221 258 132 130 215 222 214 204 199 186 181 172 173 172 162 150 155 162 162 168 167 173 166 196 196 181 168 172 156 153 132 138
221 220 264 282 5 203 181 210 201 216 236 238 247 266 198 88 330 325 264 197 188 173 169 163 151 149 147 141 147 156 169 161 165 178 183 196 190 193 185 184 175 173 152 149
196 187 177 218 201 173 222 249 233 214 218 226 61 260 325 32 358 323 349 80 154 159 159 151 146 155 149 152 156 159 169 167 171 184 190 195 199 202 195 195 186 188 170 165
221 190 163 205 254 248 230 256 277 283 278 277 217 247 56 41 31 349 14 72 105 130 131 131 143 158 160 162 164 170 175 169 169 186 196 199 197 210 201 206 209 205 196 187
246 193 128 131 281 265 228 232 298 287 281 269 226 210 183 143 137 135 122 106 107 110 118 128 139 153 160 167 173 181 185 179 177 185 197 203 197 206 209 213 220 212 204 192
281 250 173 153 183 121 305 239 232 254 273 268 251 244 230 171 150 126 155 159 132 125 131 143 153 162 163 171 173 176 192 189 180 183 193 207 213 211 213 214 210 211 209 197
259 250 197 193 224 226 189 205 239 254 270 281 280 279 53 284 299 282 258 231 218 221 183 181 182 175 171 168 172 174 184 184 182 187 197 204 204 216 212 208 208 216 215 199
239 263 241 219 161 294 261 257 249 259 253 258 279 288 82 25 328 310 303 296 265 258 220 179 178 182 181 175 174 180 187 182 183 194 196 203 203 208 215 208 210 213 208 203
203 245 243 200 185 189 213 218 246 270 268 254 258 257 118 344 326 319 304 293 282 263 223 179 177 190 195 190 190 192 196 191 187 195 202 200 204 213 215 210 203 209 206 202
246 246 256 271 303 270 244 237 237 247 257 262 260 274 274 295 314 320 311 298 287 254 232 207 201 209 214 206 201 204 203 200 196 194 204 206 208 214 217 204 203 207 207 207
244 254 254 270 276 261 259 255 242 244 259 269 279 282 287 292 299 304 305 299 285 267 254 245 236 237 226 211 210 208 201 201 198 197 205 207 207 204 207 203 208 208 213 212
243 251 252 252 244 253 259 255 248 248 255 261 269 275 288 298 295 298 300 290 269 259 256 253 250 246 242 228 218 209 203 201 202 204 205 198 207 200 208 209 203 204 220 218
224 239 251 255 247 260 251 245 241 243 246 251 263 279 300 294 301 302 301 290 283 273 267 261 259 254 251 243 227 216 209 199 203 209 206 197 202 202 208 206 199 206 210 204
234 236 249 263 255 248 266 104 242 251 260 262 271 286 284 289 296 288 290 291 286 277 272 270 270 268 259 246 232 216 205 201 204 204 204 204 205 204 205 203 205 210 202 199
233 227 235 246 256 264 241 204 227 245 255 255 267 285 309 313 284 260 338 323 306 293 283 279 277 267 260 241 225 212 203 202 204 204 207 207 208 206 204 206 213 211 199 195
202 222 234 234 249 256 196 104 293 254 236 103 299 313 320 305 287 312 345 321 307 298 285 281 278 267 252 233 214 210 206 207 211 209 211 210 210 210 211 213 217 206 198 201
188 206 226 237 245 258 58 108 214 238 353 61 295 303 297 293 316 326 315 308 301 300 296 292 279 267 245 215 208 215 215 216 215 209 210 211 210 213 213 212 211 204 198 199
217 213 218 227 236 241 112 170 228 342 17 310 297 301 298 301 312 314 309 310 309 311 305 295 280 266 217 204 209 216 223 222 210 204 205 208 209 205 204 205 206 204 200 203
232 247 249 238 258 25 164 237 343 338 314 311 301 301 296 296 304 310 309 311 311 311 307 289 271 257 211 205 219 225 219 214 206 204 206 208 205 201 201 197 195 199 202 210
222 247 247 249 250 252 248 263 284 305 306 308 301 295 289 292 301 307 308 307 308 306 304 291 270 250 235 218 219 232 226 213 210 211 209 208 206 200 198 198 200 206 207 210
239 221 241 250 261 264 251 261 277 295 299 297 293 288 289 293 297 301 302 301 296 294 293 285 273 266 252 233 229 231 227 218 217 216 212 211 207 202 203 205 210 218 220 224
225 231 242 256 261 264 274 281 286 287 289 291 289 289 291 292 293 296 298 299 293 289 288 282 270 259 252 238 234 228 228 225 223 220 215 213 208 204 207 206 210 223 243 236